Date String (YYYY-MM-DD hh:mm:ss) UTC,Instrument flags,absolute air pressure of the measurement (hPa),sample flow rate (lpm),inlet stack bypass flow (lpm),air temperature of the measurement (°C),ambient temperature measured by the external sensor (°C),aerosol sample conditioner tube jacket temperature (°C),OPC LED temperature (°C),internal box temperature (°C),relative humidity of the measurement (%),span deviation,mass concentration of particles derived from Lorenz-Mie calculation of OPC scattering (μg/m³),mass concentration of particles derived from Lorenz-Mie calculation of OPC scattering (μg/m³),mass concentration of particles derived from Lorenz-Mie calculation of OPC scattering (μg/m³)
DateTimeUTC,F1_M11,P_M11,Q1_M11,Q2_M11,T1_M11,T2_M11,T3_M11,T4_M11,T5_M11,U1_M11,ZSPAN_M11,X0_M11,X2_M11,X1_M11
2023-08-17 03:00:00,SystemResetWarning,0832.6,4.99,000.00,027.6,026.4,000.0,035.9,029.5,23.7,0000.0,0007.90,0003.66,0003.27
2023-08-17 03:01:00,SystemResetWarning,0832.5,4.99,000.00,027.7,025.5,000.0,035.8,029.4,23.5,0000.0,0007.91,0003.62,0003.26
2023-08-17 03:02:00,SystemResetWarning,0832.6,5.00,000.00,027.6,023.9,000.0,035.8,029.1,23.5,0000.0,0008.19,0003.63,0003.26
2023-08-17 03:03:00,SystemResetWarning,0832.5,5.01,000.00,027.5,023.7,000.0,035.7,028.9,23.6,0000.0,0008.39,0003.63,0003.25
2023-08-17 03:04:00,SystemResetWarning,0832.5,5.01,000.00,027.4,024.0,000.0,035.7,028.9,23.8,0000.0,0008.19,0003.66,0003.25
2023-08-17 03:05:00,SystemResetWarning,0832.6,5.00,000.00,027.4,024.4,000.0,035.7,028.9,24.1,0000.0,0008.00,0003.69,0003.25
2023-08-17 03:06:00,SystemResetWarning,0832.6,5.00,000.00,027.4,024.8,000.0,035.8,029.0,24.0,0000.0,0007.77,0003.70,0003.25
2023-08-17 03:07:00,SystemResetWarning,0832.6,5.00,000.00,027.5,025.3,000.0,035.8,029.2,23.9,0000.0,0007.82,0003.70,0003.25
2023-08-17 03:08:00,SystemResetWarning,0832.7,5.00,000.00,027.5,025.6,000.0,035.8,029.3,23.8,0000.0,0007.90,0003.73,0003.26
2023-08-17 03:09:00,SystemResetWarning,0832.6,5.00,000.00,027.5,025.9,000.0,035.9,029.4,23.5,0000.0,0007.89,0003.74,0003.26
2023-08-17 03:10:00,SystemResetWarning,0832.6,5.00,000.00,027.6,026.2,000.0,035.9,029.4,23.8,0000.0,0007.72,0003.70,0003.25
2023-08-17 03:11:00,SystemResetWarning,0832.6,5.00,000.00,027.7,026.4,000.0,035.9,029.5,23.8,0000.0,0007.70,0003.71,0003.24
2023-08-17 03:12:00,SystemResetWarning,0832.5,4.99,000.00,027.7,025.9,000.0,035.9,029.4,23.9,0000.0,0007.61,0003.73,0003.24
2023-08-17 03:13:00,SystemResetWarning,0832.5,4.99,000.00,027.6,024.2,000.0,035.8,029.0,23.8,0000.0,0007.63,0003.71,0003.24
2023-08-17 03:14:00,SystemResetWarning,0832.3,5.00,000.00,027.5,023.7,000.0,035.7,028.8,22.9,0000.0,0007.03,0003.70,0003.24
2023-08-17 03:15:00,SystemResetWarning,0832.4,5.01,000.00,027.5,024.0,000.0,035.7,028.9,21.9,0000.0,0007.21,0003.69,0003.23
2023-08-17 03:16:00,SystemResetWarning,0832.5,5.00,000.00,027.4,024.4,000.0,035.8,028.9,22.6,0000.0,0007.10,0003.67,0003.23
2023-08-17 03:17:00,SystemResetWarning,0832.6,5.00,000.00,027.4,024.8,000.0,035.8,029.0,22.1,0000.0,0007.04,0003.66,0003.22
2023-08-17 03:18:00,SystemResetWarning,0832.6,5.00,000.00,027.5,025.2,000.0,035.8,029.1,21.2,0000.0,0007.07,0003.66,0003.22
2023-08-17 03:19:00,SystemResetWarning,0832.5,5.00,000.00,027.5,025.6,000.0,035.8,029.3,20.9,0000.0,0007.25,0003.64,0003.21
2023-08-17 03:20:00,SystemResetWarning,0832.5,5.00,000.00,027.6,025.9,000.0,035.9,029.4,21.0,0000.0,0006.89,0003.59,0003.20
2023-08-17 03:21:00,SystemResetWarning,0832.5,5.00,000.00,027.6,026.2,000.0,035.9,029.5,20.5,0000.0,0006.93,0003.61,0003.22
2023-08-17 03:22:00,SystemResetWarning,0832.5,4.99,000.00,027.7,026.4,000.0,035.9,029.5,20.3,0000.0,0006.95,0003.58,0003.22
2023-08-17 03:23:00,SystemResetWarning,0832.6,4.99,000.00,027.7,025.3,000.0,035.9,029.3,20.2,0000.0,0007.50,0003.60,0003.23
2023-08-17 03:24:00,SystemResetWarning,0832.5,5.00,000.00,027.6,023.8,000.0,035.8,029.0,20.1,0000.0,0007.06,0003.62,0003.23
2023-08-17 03:25:00,SystemResetWarning,0832.5,5.00,000.00,027.5,023.8,000.0,035.7,028.9,20.3,0000.0,0007.05,0003.63,0003.23
2023-08-17 03:26:00,SystemResetWarning,0832.6,5.00,000.00,027.4,024.1,000.0,035.7,028.8,20.4,0000.0,0006.88,0003.64,0003.24
2023-08-17 03:27:00,SystemResetWarning,0832.6,5.00,000.00,027.4,024.5,000.0,035.8,029.0,21.3,0000.0,0006.63,0003.61,0003.24
2023-08-17 03:28:00,SystemResetWarning,0832.6,5.00,000.00,027.5,025.0,000.0,035.8,029.1,22.5,0000.0,0006.75,0003.61,0003.25
2023-08-17 03:29:00,SystemResetWarning,0832.7,5.00,000.00,027.5,025.4,000.0,035.8,029.2,22.7,0000.0,0006.98,0003.59,0003.25
2023-08-17 03:30:00,SystemResetWarning,0832.7,5.00,000.00,027.5,025.7,000.0,035.9,029.3,22.5,0000.0,0006.68,0003.59,0003.26
2023-08-17 03:31:00,SystemResetWarning,0832.7,4.99,000.00,027.6,026.0,000.0,035.9,029.4,22.6,0000.0,0007.32,0003.60,0003.27
2023-08-17 03:32:00,SystemResetWarning,0832.7,5.01,000.00,027.6,026.3,000.0,035.9,029.5,22.7,0000.0,0007.57,0003.61,0003.26
2023-08-17 03:33:00,SystemResetWarning,0833.0,4.99,000.00,027.7,026.5,000.0,036.0,029.6,23.1,0000.0,0007.60,0003.62,0003.26
2023-08-17 03:34:00,SystemResetWarning,0832.8,4.98,000.00,027.7,025.7,000.0,035.9,029.4,23.3,0000.0,0007.24,0003.61,0003.26
2023-08-17 03:35:00,SystemResetWarning,0832.7,5.00,000.00,027.6,024.1,000.0,035.8,029.0,23.4,0000.0,0007.10,0003.60,0003.27
2023-08-17 03:36:00,SystemResetWarning,0832.7,5.01,000.00,027.6,023.8,000.0,035.7,029.0,23.3,0000.0,0007.12,0003.60,0003.27
2023-08-17 03:37:00,SystemResetWarning,0832.7,5.01,000.00,027.5,024.1,000.0,035.7,028.9,23.1,0000.0,0007.02,0003.58,0003.26
2023-08-17 03:38:00,SystemResetWarning,0832.6,5.00,000.00,027.5,024.5,000.0,035.8,029.0,23.3,0000.0,0007.07,0003.58,0003.26
2023-08-17 03:39:00,SystemResetWarning,0832.7,5.00,000.00,027.5,025.0,000.0,035.8,029.1,23.5,0000.0,0007.11,0003.57,0003.25
2023-08-17 03:40:00,SystemResetWarning,0832.7,5.00,000.00,027.5,025.4,000.0,035.9,029.2,23.9,0000.0,0007.19,0003.58,0003.24
2023-08-17 03:41:00,SystemResetWarning,0832.6,5.00,000.00,027.6,025.7,000.0,035.9,029.3,24.0,0000.0,0007.17,0003.58,0003.24
2023-08-17 03:42:00,SystemResetWarning,0832.7,5.00,000.00,027.6,026.0,000.0,035.9,029.4,24.1,0000.0,0006.71,0003.62,0003.26
2023-08-17 03:43:00,SystemResetWarning,0832.6,5.01,000.00,027.7,026.3,000.0,036.0,029.5,23.9,0000.0,0006.91,0003.66,0003.30
2023-08-17 03:44:00,SystemResetWarning,0832.6,4.98,000.00,027.7,026.4,000.0,036.0,029.6,23.7,0000.0,0007.21,0003.71,0003.32
2023-08-17 03:45:00,SystemResetWarning,0832.7,4.99,000.00,027.7,025.1,000.0,035.9,029.3,23.3,0000.0,0007.72,0003.75,0003.36
2023-08-17 03:46:00,SystemResetWarning,0832.6,5.01,000.00,027.6,023.7,000.0,035.8,029.1,23.6,0000.0,0008.00,0003.80,0003.41
2023-08-17 03:47:00,SystemResetWarning,0832.5,5.01,000.00,027.6,023.8,000.0,035.8,029.0,24.2,0000.0,0008.12,0003.87,0003.48
2023-08-17 03:48:00,SystemResetWarning,0832.5,4.99,000.00,027.5,024.1,000.0,035.8,028.9,24.4,0000.0,0008.27,0003.97,0003.57
2023-08-17 03:49:00,SystemResetWarning,0832.6,4.99,000.00,027.5,024.6,000.0,035.8,029.0,24.4,0000.0,0008.32,0004.04,0003.64
2023-08-17 03:50:00,SystemResetWarning,0832.5,5.00,000.00,027.5,025.0,000.0,035.8,029.1,24.4,0000.0,0008.44,0004.14,0003.73
2023-08-17 03:51:00,SystemResetWarning,0832.6,5.01,000.00,027.5,025.4,000.0,035.9,029.3,24.5,0000.0,0008.32,0004.24,0003.81
2023-08-17 03:52:00,SystemResetWarning,0832.5,5.00,000.00,027.6,025.8,000.0,035.9,029.4,24.4,0000.0,0008.38,0004.31,0003.88
2023-08-17 03:53:00,SystemResetWarning,0832.5,5.00,000.00,027.6,026.1,000.0,035.9,029.4,24.1,0000.0,0008.37,0004.35,0003.95
2023-08-17 03:54:00,SystemResetWarning,0832.5,4.99,000.00,027.7,026.3,000.0,036.0,029.5,24.1,0000.0,0008.76,0004.38,0003.98
2023-08-17 03:55:00,SystemResetWarning,0832.5,5.00,000.00,027.7,026.5,000.0,036.0,029.6,23.7,0000.0,0008.89,0004.40,0004.00
2023-08-17 03:56:00,SystemResetWarning,0832.5,4.98,000.00,027.7,025.4,000.0,035.9,029.5,23.5,0000.0,0008.38,0004.35,0003.98
2023-08-17 03:57:00,SystemResetWarning,0832.5,5.01,000.00,027.7,023.9,000.0,035.8,029.2,23.4,0000.0,0008.07,0004.30,0003.93
2023-08-17 03:58:00,SystemResetWarning,0832.5,5.01,000.00,027.6,023.7,000.0,035.8,029.1,23.1,0000.0,0007.92,0004.23,0003.86
2023-08-17 03:59:00,SystemResetWarning,0832.5,5.01,000.00,027.5,024.0,000.0,035.8,029.0,23.6,0000.0,0007.80,0004.14,0003.80
